Lexington Weather

Lexington, Massachusetts, USA

76°F
9/22/2021 12:33pm 
  • Lexington Conditions: Overcast
  • Temperature: 75.7°F / 24.3°CWarmer 0.9°F than last hour.
  • Dew Point: 69.1°FIncreased 0.2°Fsince last hour.
  • Relative Humidity: 80%Decreased 2.0% since last hour.
  • Wind: Wind from SW SW 3 mph, 10-min avg: 3 mph, gust: 9 mph
  • Barometer: 30.11 inFalling 0.03  inHg/hr Falling Slowly
  • Visibility: 10 miles
  • Rain Today: 0.00 in
  •   

Regional Weather Roundup
for Boston / Norton, MA

        
000
ASUS41 KBOX 181904
RWRBOX

REGIONAL WEATHER ROUNDUP
NATIONAL WEATHER SERVICE BOSTON/NORTON MA
300 PM EDT SAT SEP 18 2021

NOTE:  "FAIR" INDICATES FEW OR NO CLOUDS BELOW 12,000 FEET WITH NO 
SIGNIFICANT WEATHER AND/OR OBSTRUCTIONS TO VISIBILITY.

MAZALL-182000-
EASTERN MASSACHUSETTS
  
CITY           SKY/WX    TMP DP  RH WIND       PRES   REMARKS
BOSTON         NOT AVBL                                               
BEVERLY        CLOUDY    74  69  85 E5        29.98F                  
LAWRENCE       MOSUNNY   78  66  66 S3        30.00F                  
BEDFORD        MOSUNNY   77  67  71 N6        29.98F                  
BLUE HILL      NOT AVBL                                               
NORWOOD        PTSUNNY   74  66  76 CALM      29.99F                  
MARSHFIELD     CLOUDY    68  64  88 VRB5G12   29.99F                  
PLYMOUTH       CLOUDY    72  66  81 N7        29.99F                  
TAUNTON        CLOUDY    73  66  78 VRB3      29.99F                  
NEW BEDFORD    PTSUNNY   75  67  76 CALM      29.97F                  
$$

MAZALL-182000-
CAPE COD AND THE ISLANDS
  
CITY           SKY/WX    TMP DP  RH WIND       PRES   REMARKS
FALMOUTH       CLOUDY    70  66  88 N9G18     29.98F                  
HYANNIS        CLOUDY    70  67  90 N10       29.96F                  
CHATHAM        PTSUNNY   72  66  81 NW8       29.98S                  
PROVINCETOWN   CLOUDY    67  65  93 N9        30.00F FOG              
NANTUCKET      SUNNY     76  65  68 N17       29.95F                  
MARTHAS VNYRD  PTSUNNY   74  68  81 N9        29.97S                  
$$
 
MAZALL-182000-
CENTRAL AND WESTERN MASSACHUSETTS
  
CITY           SKY/WX    TMP DP  RH WIND       PRES   REMARKS
WORCESTER      MOSUNNY   77  63  61 N8        30.02F                  
FITCHBURG      PTSUNNY   82  63  52 W3        29.99F                  
ORANGE         MOSUNNY   81  64  56 VRB3      30.01F                  
SPRINGFIELD    MOSUNNY   81  65  58 N7        29.98F                  
WESTFIELD      MOSUNNY   81  69  67 NE6       29.99F                  
NORTH ADAMS    SUNNY     80  65  59 VRB5      30.02F                  
PITTSFIELD     MOSUNNY   77  65  66 NW8       30.03F                  
$$
 
RIZALL-182000-
RHODE ISLAND
  
CITY           SKY/WX    TMP DP  RH WIND       PRES   REMARKS
PROVIDENCE     MOSUNNY   77  66  68 N3        29.99F                  
NEWPORT        CLOUDY    72  66  81 N12       29.99F                  
BLOCK ISLAND   SUNNY     71  67  87 NE6       29.99F                  
SMITHFIELD     MOSUNNY   74  67  78 NE3       30.01F                  
WESTERLY       MOSUNNY   72  68  87 S8        29.98F                  
$$
 
CTZALL-182000-
CONNECTICUT
  
CITY           SKY/WX    TMP DP  RH WIND       PRES   REMARKS
BRADLEY INTL   MOSUNNY   81  66  60 VRB6      29.99F                  
HARTFORD       SUNNY     82  64  54 N5        29.98F                  
BRIDGEPORT     SUNNY     78  67  68 SW9       29.99F                  
DANBURY        MOSUNNY   83  65  54 VRB6      30.02F                  
GROTON         MOSUNNY   74  67  78 SW7       29.97F                  
NEW HAVEN      MOSUNNY   81  69  67 VRB3      29.98F                  
CHESTER        FAIR      82  64  54 VRB3      29.99F                  
MERIDEN        SUNNY     83  65  54 VRB5      29.98F                  
WILLIMANTIC    SUNNY     81  63  54 N5        29.98F                  
OXFORD         PTSUNNY   78  69  73 CALM      30.02F                  
$$

MEZ002-015-021-024-NHZ003-005-008-011-012-014-VTZ005-008-182000-
NORTHERN NEW ENGLAND
  
CITY           SKY/WX    TMP DP  RH WIND       PRES   REMARKS
PORTLAND ME    MOSUNNY   74  68  81 E6        29.97F                  
BANGOR ME      PTSUNNY   79  67  66 SE3       29.96F                  
CONCORD NH     SUNNY     78  65  63 VRB3      29.99F                  
MANCHESTER NH  MOSUNNY   81  64  56 N3        29.97F                  
NASHUA NH      PTSUNNY   78  69  73 CALM      29.99F                  
PORTSMOUTH NH  MOSUNNY   78  65  64 CALM      29.99F                  
JAFFREY NH     PTSUNNY   79  66  64 CALM      30.02F                  
KEENE NH       SUNNY     79  67  66 CALM      30.00F                  
BURLINGTON VT  PTSUNNY   71  54  54 N9        30.06F                  
MT. WASHINGTON FOG       54  54 100 NW17        N/A  VSB 1/16         
$$

NYZ052-076-182000-
EASTERN NEW YORK
  
CITY           SKY/WX    TMP DP  RH WIND       PRES   REMARKS
ALBANY         PTSUNNY   79  66  64 VRB3      30.00F                  
NEW YORK CITY  PTSUNNY   85  64  49 NW5       29.99F                  
$$
 
ANZALL-182000-
MARINE OBSERVATIONS
  
STATION/POSITION TIME  TEMP    WIND        PRES    VSBY  WAVE
                       AIR SEA DIR/SP/G                  HT/PER
                 (UTC) (F)     (DEG/KT/KT) (MB)    (MI)  (FT/S)
BOSTON BUOY      1840      67  350/  8/  8 1016.3F
BUZZARDS BAY     1800          350/ 10/ 11 1016.4F
NANTUCKET SOUND  1840   70 73  340/ 17/ 19 1014.7F
MASS BAY-STELLWA 1804   64     360/ 10/ 12 1015.8F  1 7/8  2/ 8
ISLE OF SHOALS   1800   65     140/  3/  4 1015.8F
S OF BLOCK IS    1826      71                N/A           6/ 9
$$

......................KEY.........................
  SKY/WX - SKY CONDITION/PRESENT WEATHER
  TMP    - TEMPERATURE IN FAHRENHEIT
  DWPT   - DEWPOINT IN FAHRENHEIT
  RH     - RELATIVE HUMIDITY IN PERCENT
  WIND   - DIRECTION AND SPEED IN MPH
  PRES   - MEAN SEA LEVEL PRESSURE IN INCHES OF HG
  WCI    - WIND CHILL INDEX
  VSB    - VISIBILITY IN MILES
  HX     - HEAT INDEX
  TC     - TEMPERATURE IN CELSIUS
  VRB    - VARIABLE WIND DIRECTION
  N/A    - NOT AVAILABLE
  
      

Other recent Regional Weather Roundups

Wed Sep 22, 12:05pm

Wed Sep 22, 11:04am

Wed Sep 22, 10:04am

Wed Sep 22, 9:04am

Wed Sep 22, 8:04am

Wed Sep 22, 7:04am

Wed Sep 22, 6:04am

Wed Sep 22, 5:04am

Wed Sep 22, 4:04am

Wed Sep 22, 3:04am

Wed Sep 22, 2:04am

Wed Sep 22, 1:04am

Wed Sep 22, 12:04am

Tue Sep 21, 11:04pm

Tue Sep 21, 10:04pm

Tue Sep 21, 9:04pm

Tue Sep 21, 8:04pm

Tue Sep 21, 7:04pm

Tue Sep 21, 6:04pm

Tue Sep 21, 5:04pm

Tue Sep 21, 4:04pm

Tue Sep 21, 3:04pm

Tue Sep 21, 2:04pm

Tue Sep 21, 1:04pm

Tue Sep 21, 12:04pm

Tue Sep 21, 11:04am

Tue Sep 21, 10:04am

Tue Sep 21, 9:04am

Tue Sep 21, 8:04am

Tue Sep 21, 7:04am

Tue Sep 21, 6:04am

Tue Sep 21, 5:04am

Tue Sep 21, 4:04am

Tue Sep 21, 3:04am

Tue Sep 21, 2:04am

Tue Sep 21, 1:04am

Tue Sep 21, 12:04am

Mon Sep 20, 11:04pm

Mon Sep 20, 10:04pm

Mon Sep 20, 9:04pm

Mon Sep 20, 8:04pm

Mon Sep 20, 7:04pm

Mon Sep 20, 6:04pm

Mon Sep 20, 5:04pm

Mon Sep 20, 4:04pm

Mon Sep 20, 3:04pm

Mon Sep 20, 2:04pm

Mon Sep 20, 1:04pm

Mon Sep 20, 12:04pm

Mon Sep 20, 11:04am

Mon Sep 20, 10:04am

Mon Sep 20, 9:04am

Mon Sep 20, 7:04am

Mon Sep 20, 6:04am

Mon Sep 20, 5:04am

Mon Sep 20, 4:04am

Mon Sep 20, 3:04am

Mon Sep 20, 2:04am

Mon Sep 20, 1:04am

Mon Sep 20, 12:04am

Sun Sep 19, 11:04pm

Sun Sep 19, 10:04pm

Sun Sep 19, 9:04pm

Sun Sep 19, 8:04pm

Sun Sep 19, 7:04pm

Sun Sep 19, 6:04pm

Sun Sep 19, 5:04pm

Sun Sep 19, 4:04pm

Sun Sep 19, 3:04pm

Sun Sep 19, 2:05pm

Sun Sep 19, 1:04pm

Sun Sep 19, 12:04pm

Sun Sep 19, 11:04am

Sun Sep 19, 10:05am

Sun Sep 19, 9:04am

Sun Sep 19, 8:04am

Sun Sep 19, 7:04am

Sun Sep 19, 6:04am

Sun Sep 19, 5:04am

Sun Sep 19, 4:04am

Sun Sep 19, 3:04am

Sun Sep 19, 2:04am

Sun Sep 19, 1:04am

Sun Sep 19, 12:04am

Sat Sep 18, 11:05pm

Sat Sep 18, 10:04pm

Sat Sep 18, 9:04pm

Sat Sep 18, 8:04pm

Sat Sep 18, 7:04pm

Sat Sep 18, 6:04pm

Sat Sep 18, 5:04pm

Sat Sep 18, 4:04pm

Sat Sep 18, 2:04pm

Sat Sep 18, 1:04pm

Sat Sep 18, 12:04pm

Sat Sep 18, 11:04am

Sat Sep 18, 10:04am

Sat Sep 18, 9:04am

Sat Sep 18, 8:04am

Sat Sep 18, 7:04am

Sat Sep 18, 6:04am

Sat Sep 18, 5:04am

Sat Sep 18, 4:04am

Sat Sep 18, 3:04am

Sat Sep 18, 2:04am

Sat Sep 18, 1:04am

Sat Sep 18, 12:04am

Fri Sep 17, 11:04pm

Fri Sep 17, 10:04pm

Fri Sep 17, 9:04pm

Fri Sep 17, 8:04pm

Fri Sep 17, 7:04pm

Fri Sep 17, 6:04pm

Fri Sep 17, 5:04pm

Fri Sep 17, 4:04pm

Fri Sep 17, 3:04pm

Fri Sep 17, 2:04pm

Fri Sep 17, 1:04pm

Fri Sep 17, 12:05pm

Fri Sep 17, 11:04am

Fri Sep 17, 10:04am

Fri Sep 17, 9:04am

Fri Sep 17, 8:04am

Fri Sep 17, 7:04am

Fri Sep 17, 6:04am

Fri Sep 17, 5:04am

Fri Sep 17, 4:04am

Fri Sep 17, 3:04am

Fri Sep 17, 2:04am

Fri Sep 17, 1:04am

Fri Sep 17, 12:04am

Thu Sep 16, 11:04pm

Thu Sep 16, 10:04pm

Thu Sep 16, 9:04pm

Thu Sep 16, 8:04pm

Thu Sep 16, 7:04pm

Thu Sep 16, 6:04pm

Thu Sep 16, 5:04pm

Thu Sep 16, 4:04pm

Thu Sep 16, 3:04pm

Thu Sep 16, 2:04pm

Thu Sep 16, 1:05pm

Thu Sep 16, 12:04pm

Thu Sep 16, 11:05am

Thu Sep 16, 10:05am

Thu Sep 16, 9:04am

Thu Sep 16, 8:04am

Thu Sep 16, 7:04am

Thu Sep 16, 6:04am

Thu Sep 16, 5:04am

Thu Sep 16, 4:04am

Thu Sep 16, 3:04am

Thu Sep 16, 2:04am

Thu Sep 16, 1:04am

Thu Sep 16, 12:04am

Wed Sep 15, 11:04pm

Wed Sep 15, 10:04pm

Wed Sep 15, 9:04pm

Wed Sep 15, 8:04pm

Wed Sep 15, 7:04pm

Wed Sep 15, 6:04pm

Wed Sep 15, 5:05pm

Wed Sep 15, 4:04pm

Wed Sep 15, 3:04pm

Wed Sep 15, 2:04pm

Wed Sep 15, 1:04pm

Meta data:

ID: bb4d8c16-cd01-4bd4-bf66-75ba1a5cac90
Link: https://api.weather.gov/products/bb4d8c16-cd01-4bd4-bf66-75ba1a5cac90